This is the latest recevied weather packets stored in our database for station/object DM3DP. If no packets are shown the sender has not sent any weather packets the latest 10 day(s).
| Time | Temp. | Humidity | Pressure | Rain* | Wind** | Luminosity | Snow |
|---|---|---|---|---|---|---|---|
| 1777562603 | 20.56° C | 26% | 1023.9 hPa | 0 mm | - | 717 W/m² | - |
| 1777562274 | 20.56° C | 23% | 1023.9 hPa | 0 mm | - | 738 W/m² | - |
| 1777561943 | 20.56° C | 23% | 1023.9 hPa | 0 mm | - | 743 W/m² | - |
| 1777561614 | 20.56° C | 23% | 1023.9 hPa | 0 mm | - | 750 W/m² | - |
| 1777561284 | 20.56° C | 23% | 1023.9 hPa | 0 mm | - | 752 W/m² | - |
| 1777560954 | 20.56° C | 25% | 1023.9 hPa | 0 mm | - | 745 W/m² | - |
| 1777560623 | 20.56° C | 23% | 1024 hPa | 0 mm | - | 754 W/m² | - |
| 1777560294 | 20.56° C | 25% | 1024.1 hPa | 0 mm | - | 757 W/m² | - |
| 1777559963 | 20.56° C | 25% | 1024.1 hPa | 0 mm | - | 758 W/m² | - |
| 1777559634 | 20.56° C | 24% | 1024.1 hPa | 0 mm | - | 753 W/m² | - |
| 1777559304 | 20.56° C | 26% | 1024.2 hPa | 0 mm | - | 755 W/m² | - |
| 1777558973 | 20.56° C | 27% | 1024.2 hPa | 0 mm | - | 755 W/m² | - |
| 1777558644 | 20.56° C | 27% | 1024.3 hPa | 0 mm | - | 752 W/m² | - |
| 1777558314 | 20.56° C | 26% | 1024.3 hPa | 0 mm | - | 750 W/m² | - |
| 1777557983 | 20° C | 24% | 1024.3 hPa | 0 mm | - | 748 W/m² | - |
| 1777557654 | 20° C | 24% | 1024.3 hPa | 0 mm | - | 747 W/m² | - |
| 1777557323 | 20° C | 25% | 1024.5 hPa | 0 mm | - | 737 W/m² | - |
| 1777556993 | 20° C | 24% | 1024.6 hPa | 0 mm | - | 737 W/m² | - |
| 1777556663 | 20° C | 24% | 1024.6 hPa | 0 mm | - | 732 W/m² | - |
| 1777556333 | 20.56° C | 25% | 1024.6 hPa | 0 mm | - | 728 W/m² | - |
| 1777556004 | 20.56° C | 27% | 1024.6 hPa | 0 mm | - | 723 W/m² | - |
| 1777555674 | 20.56° C | 27% | 1024.6 hPa | 0 mm | - | 716 W/m² | - |
| 1777555343 | 20° C | 26% | 1024.6 hPa | 0 mm | - | 708 W/m² | - |
| 1777555014 | 20° C | 26% | 1024.7 hPa | 0 mm | - | 702 W/m² | - |
| 1777554683 | 20° C | 27% | 1024.7 hPa | 0 mm | - | 695 W/m² | - |
* Rain latest hour (hover to see other rain measurements)
** Current wind speed in m/s (hover to see current wind gust speed)